Location: Marcé
(47.5801°N, 0.3280°W)
Time: 12:01:20
(UTC+01:00)

Vanguard 3 - Pass Details

Date: 05 December 2021
Orbit: 508 x 3260 km, 33.3° (Epoch: 17 January)

Event Time Altitude Azimuth Distance (km) Brightness Sun altitude
Exits shadow 06:17:01 14° 244° (WSW) 5,884 11.0 -22.1°
Maximum altitude 06:33:42 49° 180° (S) 3,476 10.3 -19.3°
Drops below altitude 10° 06:47:13 10° 112° (ESE) 4,682 12.3 -17.1°
Sets 06:50:24 0° 106° (ESE) 5,360 13.2 -16.6°
